Weather observations for the past three days for
Sonny Callahan Airport
Imperial (Metric)
Date Time (cdt) Wind (mph) Vis. (mi.) Weather Sky Cond. Temperature (ºF) Relative Humidity Wind Chill (°F) Heat Index (°F) Pressure Precipitation (in)
Air Dwpt 6 hour altimeter (in) sea level (mb) 1 hr 3 hr 6 hr
Max. Min.
04 16:35 S 7 10.00 Fair CLR 71.6 46.4 41% 30 0.0
04 16:15 S 6 10.00 Fair CLR 73.4 46.4 38% 30 0.0
04 15:55 S 7 10.00 Partly Cloudy SCT002 73.4 46.4 38% 30.01 0.0
04 15:35 SW 7 10.00 Fair CLR 73.4 44.6 36% 30.01 0.0
04 15:15 S 6 10.00 Fair CLR 73.4 46.4 38% 30.01 0.0
04 14:35 SW 6 10.00 Fair CLR 73.4 44.6 36% 30.03 0.0
04 14:15 SW 7 10.00 Fair CLR 73.4 44.6 36% 30.03 0.0
04 13:55 S 6 10.00 Fair CLR 73.4 46.4 38% 30.04 0.0
04 13:35 S 8 10.00 Fair CLR 73.4 44.6 36% 30.04 0.0
04 13:15 SW 6 10.00 Fair CLR 73.4 46.4 38% 30.05 0.0
04 12:55 S 12 10.00 Fair CLR 73.4 46.4 38% 30.06 0.0
04 12:35 S 8 10.00 Fair CLR 71.6 46.4 41% 30.05 0.0
04 12:15 SW 3 10.00 Fair CLR 71.6 46.4 41% 30.06 0.0
04 11:55 W 5 10.00 Fair CLR 73.4 46.4 38% 30.06 0.0
04 11:35 S 7 10.00 Fair CLR 73.4 46.4 38% 30.06 0.0
04 11:15 S 8 10.00 Fair CLR 71.6 46.4 41% 30.07 0.0
04 10:55 SE 6 10.00 Fair CLR 71.6 42.8 36% 30.08 0.0
04 10:35 SE 6 10.00 Fair CLR 71.6 46.4 41% 30.08 0.0
04 10:15 Calm 10.00 Fair CLR 71.6 51.8 50% 30.08 0.0
04 09:55 NE 5 10.00 Fair CLR 69.8 51.8 53% 30.08 0.0
04 09:35 Calm 10.00 Fair CLR 69.8 53.6 57% 30.09 0.0
04 09:15 Calm 10.00 Fair CLR 68 55.4 64% 30.09 0.0
04 08:55 Calm 10.00 Fair CLR 66.2 55.4 68% 30.09 0.0
04 08:35 Calm 10.00 Fair CLR 64.4 55.4 73% 30.09 0.0
04 08:15 Calm 10.00 Fair CLR 60.8 55.4 83% 30.09 0.0
04 07:55 Calm 10.00 Fair CLR 60.8 53.6 77% 30.08 0.0
04 07:35 Calm 10.00 Fair CLR 57.2 51.8 82% 30.08 0.0
04 07:15 Calm 10.00 Fair CLR 53.6 51.8 94% 30.08 0.0
04 06:55 Calm 10.00 Fair CLR 50 50 100% 30.07 0.0
04 06:35 Calm 10.00 Fair CLR 50 48.2 94% 30.06 0.0
04 06:15 Calm 10.00 Fair CLR 48.2 46.4 94% 30.05 0.0
04 05:55 Calm 10.00 Fair CLR 50 48.2 94% 30.05 0.0
04 05:35 Calm 10.00 Fair CLR 50 48.2 94% 30.06 0.0
04 05:15 Calm 10.00 Fair CLR 50 48.2 94% 30.06 0.0
04 04:55 Calm 10.00 Fair CLR 50 50 100% 30.06 0.0
04 04:35 Calm 10.00 Fair CLR 50 50 100% 30.06 0.0
04 04:15 Calm 10.00 Fair CLR 50 50 100% 30.06 0.0
04 03:55 Calm 10.00 Fair CLR 50 50 100% 30.06 0.0
04 03:35 Calm 10.00 Fair CLR 51.8 50 94% 30.06 0.0
04 03:15 Calm 10.00 Fair CLR 51.8 50 94% 30.06 0.0
04 02:55 Calm 10.00 Fair CLR 51.8 50 94% 30.06 0.0
04 02:35 Calm 10.00 Fair CLR 51.8 51.8 100% 30.07 0.0
04 02:15 Calm 10.00 Fair CLR 51.8 51.8 100% 30.07 0.0
04 01:55 Calm 10.00 Fair CLR 53.6 51.8 94% 30.08 0.0
04 01:35 Calm 10.00 Fair CLR 53.6 51.8 94% 30.09 0.0
04 01:15 Calm 10.00 Fair CLR 53.6 51.8 94% 30.09 0.0
04 00:55 Calm 10.00 Fair CLR 53.6 51.8 94% 30.09 0.0
04 00:35 Calm 10.00 Fair CLR 55.4 51.8 88% 30.1 0.0
03 23:55 Calm 10.00 Fair CLR 55.4 51.8 88% 30.1 0.0
03 23:35 Calm 10.00 Fair CLR 57.2 51.8 82% 30.1 0.0
03 23:15 Calm 10.00 Fair CLR 59 51.8 77% 30.11 0.0
03 22:55 Calm 10.00 Fair CLR 60.8 51.8 72% 30.1 0.0
03 22:35 Calm 10.00 Fair CLR 60.8 51.8 72% 30.1 0.0
03 22:15 Calm 10.00 Fair CLR 62.6 51.8 68% 30.1 0.0
03 21:55 W 3 10.00 Fair CLR 64.4 50 60% 30.1 0.0
03 21:35 Calm 10.00 Fair CLR 64.4 50 60% 30.09 0.0
03 21:15 W 3 10.00 Fair CLR 64.4 50 60% 30.09 0.0
03 20:55 Calm 10.00 Fair CLR 62.6 50 64% 30.09 0.0
03 20:35 Calm 10.00 Fair CLR 62.6 48.2 60% 30.08 0.0
03 20:15 Calm 10.00 Fair CLR 64.4 46.4 52% 30.07 0.0
03 19:55 Calm 10.00 Fair CLR 66.2 46.4 49% 30.07 0.0
03 19:35 Calm 10.00 Fair CLR 68 46.4 46% 30.06 0.0
03 19:15 W 3 10.00 Fair CLR 68 48.2 49% 30.06 0.0
03 18:55 W 7 10.00 Fair CLR 69.8 46.4 43% 30.06 0.0
03 18:35 W 7 10.00 Fair CLR 69.8 46.4 43% 30.06 0.0
03 18:15 NW 3 10.00 Fair CLR 73.4 42.8 33% 30.06 0.0
03 17:55 NW 5 10.00 Fair CLR 73.4 41 31% 30.06 0.0
03 17:35 Calm 10.00 Fair CLR 73.4 41 31% 30.06 0.0
03 17:15 NW 6 10.00 Fair CLR 75.2 41 29% 77 30.06 0.0
03 16:55 N 3 10.00 Fair CLR 75.2 39.2 27% 77 30.06 0.0
03 16:35 NE 6 10.00 Fair CLR 75.2 39.2 27% 77 30.07 0.0
03 16:15 NE 6 10.00 Fair CLR 75.2 37.4 25% 77 30.07 0.0
03 15:55 N 7 10.00 Fair CLR 75.2 39.2 27% 77 30.08 0.0
03 15:35 NW 6 10.00 Fair CLR 73.4 37.4 27% 30.09 0.0
03 15:15 N 5 10.00 Fair CLR 73.4 35.6 25% 30.1 0.0
03 14:55 N 6 10.00 Fair CLR 73.4 35.6 25% 30.11 0.0
03 14:35 NW 8 10.00 Fair CLR 73.4 37.4 27% 30.12 0.0
03 14:15 NW 7 10.00 Fair CLR 73.4 37.4 27% 30.13 0.0
03 13:55 NW 7 10.00 Fair CLR 71.6 37.4 29% 30.14 0.0
03 13:35 W 7 10.00 Fair CLR 71.6 39.2 31% 30.15 0.0
03 13:15 NW 9 G 16 10.00 Fair CLR 71.6 39.2 31% 30.15 0.0
03 12:35 NW 9 G 16 10.00 Fair CLR 71.6 37.4 29% 30.16 0.0
03 12:15 NE 14 G 17 10.00 Fair CLR 71.6 37.4 29% 30.16 0.0
03 11:55 NE 10 10.00 Fair CLR 71.6 37.4 29% 30.17 0.0
03 11:35 NW 7 10.00 Fair CLR 71.6 39.2 31% 30.18 0.0
03 11:15 NE 10 10.00 Fair CLR 71.6 35.6 27% 30.18 0.0
03 10:55 NE 9 G 18 10.00 Fair CLR 71.6 37.4 29% 30.19 0.0
03 10:35 NE 10 10.00 Fair CLR 69.8 33.8 27% 30.19 0.0
03 10:15 NE 6 10.00 Fair CLR 69.8 35.6 29% 30.19 0.0
03 09:55 E 8 10.00 Fair CLR 69.8 41 35% 30.19 0.0
03 09:35 NE 5 10.00 Fair CLR 68 42.8 40% 30.19 0.0
03 09:15 NE 5 10.00 Fair CLR 68 42.8 40% 30.19 0.0
03 08:55 N 3 10.00 Fair CLR 64.4 44.6 49% 30.18 0.0
03 08:35 E 6 10.00 Fair CLR 62.6 44.6 52% 30.17 0.0
03 08:15 E 5 10.00 Fair CLR 60.8 44.6 55% 30.17 0.0
03 07:55 NE 3 10.00 Fair CLR 57.2 44.6 63% 30.16 0.0
03 07:35 NE 3 10.00 Fair CLR 55.4 46.4 72% 30.15 0.0
03 07:15 Calm 10.00 Fair CLR 50 44.6 82% 30.15 0.0
03 06:55 Calm 10.00 Fair CLR 48.2 44.6 87% 30.15 0.0
03 06:35 Calm 10.00 Fair CLR 44.6 42.8 93% 30.14 0.0
03 06:15 Calm 10.00 Fair CLR 44.6 42.8 93% 30.14 0.0
03 05:55 Calm 10.00 Fair CLR 44.6 42.8 93% 30.14 0.0
03 05:35 Calm 10.00 Fair CLR 44.6 42.8 93% 30.14 0.0
03 05:15 Calm 10.00 Fair CLR 44.6 42.8 93% 30.13 0.0
03 04:55 Calm 10.00 Fair CLR 44.6 42.8 93% 30.13 0.0
03 04:35 Calm 10.00 Fair CLR 44.6 42.8 93% 30.12 0.0
03 04:15 Calm 10.00 Fair CLR 46.4 42.8 87% 30.12 0.0
03 03:55 Calm 10.00 Fair CLR 46.4 42.8 87% 30.11 0.0
03 03:35 Calm 10.00 Fair CLR 46.4 42.8 87% 30.11 0.0
03 03:15 Calm 10.00 Fair CLR 48.2 42.8 82% 30.11 0.0
03 02:55 Calm 10.00 Fair CLR 50 42.8 76% 30.1 0.0
03 02:35 Calm 10.00 Fair CLR 50 42.8 76% 30.1 0.0
03 02:15 Calm 10.00 Fair CLR 50 44.6 82% 30.09 0.0
03 01:55 Calm 10.00 Fair CLR 50 42.8 76% 30.1 0.0
03 01:35 Calm 10.00 Fair CLR 50 42.8 76% 30.1 0.0
03 01:15 Calm 10.00 Fair CLR 51.8 42.8 72% 30.1 0.0
03 00:55 Calm 10.00 Fair CLR 53.6 42.8 67% 30.1 0.0
03 00:35 Calm 10.00 Fair CLR 53.6 42.8 67% 30.09 0.0
03 00:15 Calm 10.00 Fair CLR 53.6 42.8 67% 30.09 0.0
02 23:55 Calm 10.00 Fair CLR 53.6 44.6 72% 30.09 0.0
02 23:35 Calm 10.00 Fair CLR 50 46.4 88% 30.08 0.0
02 23:15 Calm 10.00 Fair CLR 50 46.4 88% 30.09 0.0
02 22:55 Calm 10.00 Fair CLR 51.8 46.4 82% 30.08 0.0
02 22:35 Calm 10.00 Fair CLR 53.6 44.6 72% 30.07 0.0
02 22:15 Calm 10.00 Fair CLR 53.6 42.8 67% 30.07 0.0
02 21:55 Calm 10.00 Fair CLR 57.2 42.8 59% 30.06 0.0
02 21:35 Calm 10.00 Fair CLR 55.4 42.8 63% 30.06 0.0
02 21:15 Calm 10.00 Fair CLR 59 42.8 55% 30.05 0.0
02 20:55 Calm 10.00 Fair CLR 60.8 41 48% 30.04 0.0
02 20:35 N 3 10.00 Fair CLR 60.8 41 48% 30.04 0.0
02 20:15 Calm 10.00 Fair CLR 62.6 41 45% 30.03 0.0
02 19:55 N 3 10.00 Fair CLR 62.6 41 45% 30.02 0.0
02 19:35 N 6 10.00 Fair CLR 64.4 39.2 40% 30 0.0
02 19:15 NW 5 10.00 Fair CLR 64.4 37.4 37% 29.99 0.0
02 18:55 N 8 10.00 Fair CLR 68 39.2 35% 29.98 0.0
02 18:35 N 8 10.00 Fair CLR 68 39.2 35% 29.97 0.0
02 18:15 N 6 10.00 Fair CLR 69.8 42.8 38% 29.97 0.0
02 17:55 NE 13 G 17 10.00 Fair CLR 69.8 42.8 38% 29.96 0.0
02 17:35 N 8 G 17 10.00 Fair CLR 69.8 41 35% 29.96 0.0
02 17:15 NE 12 G 21 10.00 Fair CLR 69.8 39.2 33% 29.95 0.0
02 16:55 N 8 G 23 10.00 Fair CLR 69.8 42.8 38% 29.95 0.0
02 16:35 N 9 G 17 10.00 Fair CLR 71.6 44.6 38% 29.94 0.0
02 16:15 N 9 G 18 10.00 Fair CLR 71.6 44.6 38% 29.94 0.0
02 15:55 N 8 10.00 Fair CLR 69.8 46.4 43% 29.95 0.0
02 15:35 N 9 10.00 Partly Cloudy SCT048 71.6 48.2 44% 29.95 0.0
02 15:15 NE 13 G 22 10.00 Partly Cloudy SCT046 69.8 50 50% 29.95 0.0
02 14:55 NW 10 G 16 10.00 Partly Cloudy SCT044 69.8 50 50% 29.95 0.0
02 14:35 N 6 G 17 10.00 Partly Cloudy SCT042 68 50 53% 29.96 0.0
02 14:15 N 8 G 16 10.00 Mostly Cloudy BKN042 68 51.8 56% 29.96 0.0
02 13:55 N 8 G 16 10.00 Mostly Cloudy BKN038 BKN044 68 51.8 56% 29.97 0.0
02 13:35 N 8 G 18 10.00 Mostly Cloudy BKN036 68 51.8 56% 29.97 0.0
02 13:15 N 9 10.00 Mostly Cloudy BKN034 68 53.6 60% 29.97 0.0
02 12:55 N 8 10.00 Mostly Cloudy BKN032 68 51.8 56% 29.98 0.0
02 12:35 NW 10 G 17 10.00 Partly Cloudy SCT028 66.2 53.6 64% 29.97 0.0
02 12:15 NW 8 G 20 10.00 Partly Cloudy SCT028 66.2 53.6 64% 29.97 0.0
02 11:55 N 7 G 10 10.00 Partly Cloudy SCT024 64.4 53.6 68% 29.97 0.0
02 11:35 N 7 10.00 Mostly Cloudy BKN022 62.6 53.6 73% 29.98 0.0
02 11:15 N 6 10.00 Overcast BKN022 OVC029 62.6 53.6 73% 29.98 0.0
02 10:55 N 9 10.00 Overcast BKN019 OVC050 62.6 53.6 73% 29.98 0.0
02 10:35 N 8 10.00 Overcast BKN017 OVC048 62.6 53.6 73% 29.98 0.0
02 10:15 N 8 10.00 Overcast SCT013 BKN021 OVC050 60.8 53.6 77% 29.96 0.0
02 09:55 NE 8 10.00 Overcast OVC043 59 53.6 82% 29.96 0.0
02 09:35 NE 9 10.00 Overcast SCT040 BKN047 OVC090 55.4 51.8 88% 29.95 0.0
02 09:15 NE 9 10.00 Overcast SCT012 SCT029 OVC090 55.4 51.8 88% 29.96 0.0
02 08:55 NE 8 10.00 Light Rain SCT012 SCT034 OVC090 55.4 51.8 88% 29.95 0.0
02 08:35 NE 9 10.00 Overcast BKN034 OVC090 55.4 51.8 88% 29.94 0.0
02 08:15 N 7 10.00 Overcast OVC032 53.6 51.8 94% 29.95 0.0
02 07:55 NE 14 10.00 Overcast OVC028 53.6 51.8 94% 29.93 0.0
02 07:35 NE 8 G 16 10.00 Overcast SCT009 OVC028 53.6 51.8 94% 29.93 0.0
02 07:15 E 13 10.00 Overcast SCT009 OVC026 53.6 51.8 94% 29.91 0.0
02 06:55 E 13 10.00 Overcast SCT010 OVC026 53.6 51.8 94% 29.91 0.0
02 06:35 E 12 G 17 10.00 Overcast SCT008 OVC026 53.6 51.8 94% 29.9 0.0
02 06:15 NE 12 G 17 10.00 Overcast BKN008 OVC026 53.6 51.8 94% 29.91 0.0
02 05:55 E 10 10.00 Overcast OVC008 51.8 51.8 100% 29.91 0.0
02 05:35 NE 14 G 21 10.00 Overcast OVC008 51.8 51.8 100% 29.88 0.0
02 05:15 E 14 10.00 Overcast OVC008 51.8 51.8 100% 29.88 0.0
02 04:55 NE 8 10.00 Rain OVC008 51.8 51.8 100% 29.89 0.0 0.04
02 04:35 N 6 10.00 Rain OVC008 51.8 51.8 100% 29.92 0.0 0.03
02 04:15 NE 10 G 17 10.00 Light Rain OVC008 53.6 51.8 94% 29.87 0.0 0.01
02 03:55 NE 8 10.00 Light Drizzle BKN006 OVC009 53.6 53.6 100% 29.86 0.0 0.12
02 03:35 N 6 10.00 Light Rain OVC006 53.6 53.6 100% 29.86 0.0 0.12
02 03:15 NE 13 4.00 Heavy Rain OVC008 53.6 53.6 100% 29.86 0.0 0.09
02 02:55 N 5 7.00 Rain OVC006 53.6 53.6 100% 29.88 0.0 0.14
02 02:35 N 6 7.00 Rain OVC006 53.6 53.6 100% 29.86 0.0 0.08
02 02:15 NE 10 10.00 Rain OVC006 53.6 53.6 100% 29.85 0.0 0.03
02 01:55 NE 8 7.00 Rain OVC006 53.6 53.6 100% 29.87 0.0 0.04
02 01:35 NE 5 10.00 Light Rain OVC006 53.6 53.6 100% 29.88 0.0
02 01:15 NE 7 10.00 Drizzle BKN006 OVC060 53.6 53.6 100% 29.88 0.0
02 00:55 NE 7 10.00 Light Rain BKN006 BKN029 OVC060 53.6 53.6 100% 29.89 0.0
02 00:35 NE 10 10.00 Light Drizzle OVC006 53.6 53.6 100% 29.88 0.0
02 00:15 NE 7 10.00 Rain OVC006 53.6 53.6 100% 29.9 0.0
01 23:55 NE 10 10.00 Overcast OVC006 53.6 53.6 100% 29.9 0.0 0.01
01 23:35 NE 8 10.00 Overcast OVC006 53.6 53.6 100% 29.91 0.0 0.01
01 23:15 NE 8 10.00 Mostly Cloudy BKN006 BKN060 BKN120 53.6 53.6 100% 29.9 0.0
01 22:55 NE 9 10.00 Light Drizzle BKN006 BKN044 OVC100 53.6 53.6 100% 29.89 0.0 0.12
01 22:35 NE 13 10.00 Rain SCT012 BKN060 OVC100 53.6 53.6 100% 29.89 0.0 0.11
01 22:15 NE 10 7.00 Heavy Rain SCT009 BKN050 OVC070 53.6 53.6 100% 29.93 0.0 0.05
01 21:55 NE 10 7.00 Heavy Rain BKN007 BKN034 OVC080 53.6 53.6 100% 29.95 0.0 0.19
01 21:35 NE 6 10.00 Light Rain SCT007 BKN026 OVC080 53.6 53.6 100% 29.93 0.0 0.14
01 21:15 NE 8 5.00 Heavy Rain BKN007 BKN025 OVC041 53.6 53.6 100% 29.94 0.0 0.09
01 20:55 N 5 7.00 Heavy Rain OVC007 53.6 53.6 100% 29.94 0.0 0.1
01 20:35 E 12 G 17 7.00 Light Rain OVC007 53.6 53.6 100% 29.88 0.0 0.06
01 20:15 NE 12 G 20 10.00 Light Rain BKN007 OVC050 53.6 53.6 100% 29.88 0.0 0.03
01 19:55 NE 13 G 20 7.00 Rain SCT009 BKN012 OVC048 55.4 53.6 94% 29.88 0.0 0.04
01 19:35 E 16 G 20 10.00 Light Rain SCT011 OVC040 55.4 53.6 94% 29.87 0.0
01 19:15 NW 7 G 16 10.00 Overcast SCT011 OVC040 57.2 53.6 88% 29.9 0.0
01 18:55 E 13 G 22 10.00 Light Rain OVC042 57.2 55.4 94% 29.88 0.0 0.06
01 18:35 NE 9 10.00 Heavy Rain OVC039 59 55.4 88% 29.87 0.0 0.04
01 18:15 NE 15 G 22 7.00 Light Rain SCT009 BKN013 OVC037 59 55.4 88% 29.86 0.0 0.02
01 17:55 NE 14 G 22 7.00 Rain BKN009 OVC018 60.8 59 94% 29.86 0.0 0.03
01 17:35 NE 15 10.00 Light Rain SCT009 BKN016 OVC042 60.8 59 94% 29.83 0.0 0.01
01 17:15 E 15 G 20 10.00 Drizzle SCT009 BKN016 OVC044 62.6 60.8 94% 29.85 0.0
01 16:55 E 9 7.00 Light Rain OVC016 62.6 60.8 94% 29.86 0.0 0.1
Date Time (cdt) Wind (mph) Vis. (mi.) Weather Sky Cond. Air Dwpt Max. Min. Relative Humidity Wind Chill (°F) Heat Index (°F) altimeter (in) sea level (mb) 1 hr 3 hr 6 hr
6 hour
Temperature (ºF) Pressure Precipitation (in)